This demonstration page uses our WeatherBlox Daily Observations layout. Learn more.

Left ArrowRight Arrow

Hourly Observations for April 16, 2021

Temp ( °F °C ) Dew Point ( °F °C ) Humidity (%) Winds ( mph kmh ) Pressure ( in mb ) Visibility ( mi km ) Precip ( " mm )
12:53 am 00:53 Cloudy 39 3.9 31 -0.6 73 73 NE 13 20 30.15 1021 10 16 0.00 0.00
1:53 am 01:53 Cloudy 38 3.3 31 -0.6 76 76 NE 8 13 30.13 1020 10 16 0.00 0.00
2:53 am 02:53 Mostly Cloudy 38 3.3 32 0 79 79 N 6 9 30.13 1020 10 16 0.00 0.00
3:53 am 03:53 Cloudy 38 3.3 32 0 79 79 N 7 11 30.11 1020 10 16 0.00 0.00
4:53 am 04:53 Cloudy 38 3.3 31 -0.6 76 76 NNW 5 7 30.12 1020 10 16 0.00 0.00
5:11 am 05:11 Cloudy 38 3.3 32 0 79 79 NW 6 9 30.16 1021 10 16 0.00 0.00
5:53 am 05:53 Cloudy with Light Rain 37 2.8 32 0 82 82 NW 7 11 30.12 1020 8 13 0.00 0.00
6:53 am 06:53 Cloudy with Light Rain 36 2.2 33 0.6 89 89 NNW 5 7 30.11 1020 6 10 0.02 0.51
7:53 am 07:53 Cloudy with Light Rain 36 2.2 34 1.1 93 93 NNE 3 6 30.11 1020 6 10 0.03 0.76
8:41 am 08:41 Cloudy with Light Rain 37 2.8 35 1.7 93 93 NNE 6 9 30.14 1021 5 8 0.03 0.76
8:53 am 08:53 Cloudy with Rain 37 2.8 35 1.7 93 93 NNE 7 11 30.11 1020 3 5 0.05 1.27
9:29 am 09:29 Cloudy with Light Rain 37 2.8 35 1.7 93 93 NNE 8 13 30.14 1021 3 5 0.05 1.27
9:53 am 09:53 Cloudy with Light Rain 37 2.8 35 1.7 93 93 NNE 8 13 30.11 1020 4 6 0.07 1.78
10:53 am 10:53 Cloudy with Light Rain 38 3.3 36 2.2 93 93 NE 5 7 30.12 1020 5 8 0.03 0.76
11:53 am 11:53 Cloudy with Light Rain 39 3.9 36 2.2 89 89 N 5 7 30.12 1020 6 10 0.02 0.51
12:36 pm 12:36 Cloudy with Light Rain 40 4.4 36 2.2 86 86 NNE 7 11 30.13 1020 8 13 0.01 0.25
12:53 pm 12:53 Cloudy with Light Rain 40 4.4 36 2.2 86 86 N 9 15 30.11 1020 9 14 0.01 0.25
1:33 pm 13:33 Cloudy with Light Rain 40 4.4 37 2.8 89 89 N 7 11 30.13 1020 10 16 0.01 0.25
1:53 pm 13:53 Cloudy with Light Rain 41 5 37 2.8 86 86 N 8 13 30.11 1020 10 16 0.01 0.25
2:17 pm 14:17 Cloudy with Light Rain 40 4.4 37 2.8 89 89 N 10 17 30.13 1020 6 10 0.01 0.25
2:53 pm 14:53 Cloudy with Light Rain 40 4.4 37 2.8 89 89 N 10 17 30.11 1020 4 6 0.02 0.51
3:45 pm 15:45 Cloudy with Light Rain 41 5 38 3.3 89 89 N 9 15 30.12 1020 6 10 0.01 0.25
3:53 pm 15:53 Cloudy with Light Rain 41 5 38 3.3 89 89 N 10 17 30.10 1019 6 10 0.01 0.25
4:53 pm 16:53 Cloudy with Light Rain 42 5.6 38 3.3 85 85 N 12 19 30.10 1019 10 16 0.01 0.25
5:30 pm 17:30 Cloudy with Light Rain 42 5.6 38 3.3 85 85 N 10 17 30.11 1020 10 16 0.01 0.25
5:38 pm 17:38 Cloudy with Light Rain 41 5 38 3.3 89 89 N 9 15 30.12 1020 10 16 0.01 0.25
5:53 pm 17:53 Cloudy with Light Rain 42 5.6 38 3.3 85 85 NNE 9 15 30.10 1019 10 16 0.01 0.25
6:04 pm 18:04 Cloudy with Light Rain 42 5.6 38 3.3 85 85 NNE 9 15 30.11 1020 10 16 0.00 0.00
6:16 pm 18:16 Cloudy with Light Rain 41 5 37 2.8 86 86 NNE 9 15 30.12 1020 6 10 0.01 0.25
6:37 pm 18:37 Cloudy with Light Rain 41 5 37 2.8 86 86 N 9 15 30.13 1020 10 16 0.01 0.25
6:53 pm 18:53 Cloudy with Light Rain 40 4.4 38 3.3 93 93 N 9 15 30.11 1020 5 8 0.02 0.51
7:32 pm 19:32 Cloudy with Light Rain 40 4.4 37 2.8 89 89 N 9 15 30.13 1020 6 10 0.01 0.25
7:38 pm 19:38 Cloudy with Light Rain 40 4.4 37 2.8 89 89 N 8 13 30.13 1020 8 13 0.01 0.25
7:46 pm 19:46 Cloudy with Light Rain 40 4.4 37 2.8 89 89 N 12 19 30.13 1020 10 16 0.01 0.25
7:53 pm 19:53 Cloudy with Light Rain 40 4.4 37 2.8 89 89 NNW 10 17 30.12 1020 10 16 0.01 0.25
8:30 pm 20:30 Cloudy with Light Rain 39 3.9 37 2.8 93 93 N 7 11 30.14 1021 9 14 0.01 0.25
8:53 pm 20:53 Cloudy with Light Rain 39 3.9 37 2.8 93 93 N 9 15 30.14 1021 9 14 0.01 0.25
9:45 pm 21:45 Cloudy with Light Rain 39 3.9 37 2.8 93 93 N 10 17 30.17 1022 10 16 0.02 0.51
9:53 pm 21:53 Cloudy with Light Rain 40 4.4 38 3.3 93 93 N 9 15 30.15 1021 10 16 0.02 0.51
10:11 pm 22:11 Cloudy 40 4.4 38 3.3 93 93 N 9 15 30.17 1022 10 16 0.00 0.00
10:21 pm 22:21 Cloudy 40 4.4 38 3.3 93 93 N 9 15 30.17 1022 10 16 0.00 0.00
10:53 pm 22:53 Cloudy with Light Rain 40 4.4 38 3.3 93 93 NNW 10 17 30.16 1021 9 14 0.00 0.00
11:19 pm 23:19 Cloudy with Light Rain 40 4.4 38 3.3 93 93 NNW 9 15 30.17 1022 9 14 0.00 0.00
11:51 pm 23:51 Cloudy with Light Rain 39 4 37 3 93 93 NNW 12 19 30.18 1022 10 16 0.00 0.00
11:53 pm 23:53 Cloudy with Light Rain 40 4.4 38 3.3 93 93 NNW 13 20 30.16 1021 10 16 0.00 0.00

Powered by AerisWeather